TimePDT,TemperatureF,Dew PointF,Humidity,Sea Level PressureIn,VisibilityMPH,Wind Direction,Wind SpeedMPH,Gust SpeedMPH,PrecipitationIn,Events,Conditions,WindDirDegrees,DateUTC
12:43 AM,64.4,55.4,73,29.90,10.0,Calm,Calm,-,N/A,,Mostly Cloudy,0,2013-06-10 07:43:00
12:53 AM,64.0,55.0,73,29.89,10.0,Calm,Calm,-,N/A,,Overcast,0,2013-06-10 07:53:00
1:53 AM,64.9,55.0,70,29.89,10.0,South,4.6,-,N/A,,Overcast,170,2013-06-10 08:53:00
2:53 AM,64.9,55.0,70,29.89,10.0,SSE,3.5,-,N/A,,Overcast,160,2013-06-10 09:53:00
3:53 AM,64.9,55.0,70,29.90,10.0,South,3.5,-,N/A,,Overcast,170,2013-06-10 10:53:00
4:53 AM,64.9,55.0,70,29.90,10.0,Calm,Calm,-,N/A,,Overcast,0,2013-06-10 11:53:00
5:53 AM,66.0,55.0,68,29.91,10.0,Calm,Calm,-,N/A,,Overcast,0,2013-06-10 12:53:00
6:53 AM,66.0,54.0,65,29.93,10.0,Calm,Calm,-,N/A,,Overcast,0,2013-06-10 13:53:00
7:53 AM,66.0,55.0,68,29.94,10.0,Calm,Calm,-,N/A,,Overcast,0,2013-06-10 14:53:00
8:07 AM,66.2,55.4,68,29.94,10.0,Calm,Calm,-,N/A,,Overcast,0,2013-06-10 15:07:00
8:53 AM,68.0,54.0,61,29.95,10.0,Calm,Calm,-,N/A,,Overcast,0,2013-06-10 15:53:00
9:39 AM,69.8,53.6,56,29.95,10.0,SSW,3.5,-,N/A,,Overcast,210,2013-06-10 16:39:00
9:53 AM,71.1,53.1,53,29.95,10.0,Calm,Calm,-,N/A,,Overcast,0,2013-06-10 16:53:00
10:53 AM,75.0,52.0,44,29.94,10.0,Calm,Calm,-,N/A,,Clear,0,2013-06-10 17:53:00
11:53 AM,77.0,54.0,45,29.94,-9999.0,Variable,4.6,-,N/A,,Clear,0,2013-06-10 18:53:00
12:53 PM,78.1,55.0,45,29.93,10.0,SW,8.1,-,N/A,,Clear,230,2013-06-10 19:53:00
1:53 PM,78.1,55.0,45,29.91,10.0,SSW,8.1,-,N/A,,Clear,200,2013-06-10 20:53:00
2:53 PM,80.1,55.0,42,29.91,10.0,SSW,9.2,-,N/A,,Clear,210,2013-06-10 21:53:00
3:53 PM,79.0,55.0,44,29.90,10.0,SSW,11.5,16.1,N/A,,Clear,210,2013-06-10 22:53:00
4:53 PM,80.1,54.0,40,29.88,10.0,SSW,10.4,-,N/A,,Clear,210,2013-06-10 23:53:00
5:53 PM,78.1,54.0,43,29.88,10.0,West,9.2,-,N/A,,Clear,280,2013-06-11 00:53:00
6:53 PM,75.9,55.0,48,29.89,10.0,Variable,3.5,-,N/A,,Clear,0,2013-06-11 01:53:00
7:53 PM,72.0,55.0,55,29.89,10.0,West,5.8,-,N/A,,Clear,260,2013-06-11 02:53:00
8:53 PM,70.0,55.9,61,29.90,10.0,Variable,3.5,-,N/A,,Clear,0,2013-06-11 03:53:00
9:53 PM,69.1,55.9,63,29.91,10.0,Calm,Calm,-,N/A,,Clear,0,2013-06-11 04:53:00
10:53 PM,68.0,55.9,65,29.92,10.0,WNW,3.5,-,N/A,,Clear,300,2013-06-11 05:53:00
11:53 PM,66.9,57.0,70,29.93,10.0,WNW,3.5,-,N/A,,Clear,290,2013-06-11 06:53:00